period_start,C,m1,H,J0,J1,J2,J3,J4,J5,JA,JB,JC,JD,JJ,JK,JN,#
2015-10-25 00:00:12,0.05,0.43,0.00,18.87,24.55,28.20,14.85,47.59,1016.13,2047.00,3475.01,3183.01,3457.25,600.13,604.28,19.77,0000 0000 0000 0000 000000
2015-10-25 00:05:13,0.06,0.43,0.00,18.87,24.55,28.18,14.78,47.34,1016.12,2047.00,3473.68,3182.08,3456.33,599.82,603.98,19.82,0000 0000 0000 0000 000000
2015-10-25 00:10:14,0.05,0.44,0.00,18.87,24.55,28.19,14.84,47.43,1016.01,2047.00,3472.34,3181.15,3455.36,600.31,604.37,19.87,0000 0000 0000 0000 000000
2015-10-25 00:15:15,0.05,0.44,0.00,18.87,24.55,28.19,14.91,47.59,1015.71,2046.99,3470.87,3180.18,3454.32,600.10,604.06,19.92,0000 0000 0000 0000 000000
2015-10-25 00:20:17,0.06,0.44,0.00,18.88,24.55,28.19,14.88,47.35,1015.66,2046.99,3469.58,3179.33,3453.32,600.10,604.07,19.97,0000 0000 0000 0000 000000
2015-10-25 00:25:18,0.06,0.45,0.00,18.89,24.55,28.17,14.83,47.36,1015.65,2046.99,3468.16,3178.45,3452.30,600.03,603.90,20.02,0000 0000 0000 0000 000000
2015-10-25 00:30:19,0.06,0.45,0.00,18.89,24.55,28.16,14.86,47.47,1015.64,2046.99,3466.65,3177.41,3451.21,600.32,604.18,20.07,0000 0000 0000 0000 000000
2015-10-25 00:35:20,0.05,0.45,0.00,18.89,24.55,28.15,14.86,47.35,1015.64,2046.99,3465.22,3176.46,3450.12,599.97,603.84,20.12,0000 0000 0000 0000 000000
2015-10-25 00:40:21,0.06,0.46,0.00,18.90,24.57,28.12,14.82,47.14,1015.64,2046.99,3463.66,3175.46,3448.96,600.01,603.83,20.17,0000 0000 0000 0000 000000
2015-10-25 00:45:23,0.06,0.46,0.00,18.92,24.57,28.14,14.86,47.26,1015.64,2046.99,3462.07,3174.41,3447.82,600.24,604.04,20.22,0000 0000 0000 0000 000000
2015-10-25 00:50:24,0.07,0.46,0.00,18.92,24.57,28.20,14.87,47.33,1015.64,2046.99,3460.53,3173.35,3446.65,600.11,603.88,20.27,0000 0000 0000 0000 000000
2015-10-25 00:55:25,0.06,0.47,0.00,18.92,24.57,28.18,14.76,47.18,1015.64,2046.99,3458.94,3172.30,3445.55,599.52,603.42,20.33,0000 0000 0000 0000 000000
2015-10-25 01:00:27,0.07,0.47,0.00,18.93,24.57,28.19,14.82,47.30,1015.64,2046.98,3457.22,3171.07,3444.19,599.92,603.64,20.38,0000 0000 0000 0000 000000
2015-10-25 01:05:28,0.08,0.47,0.00,18.93,24.58,28.14,14.82,47.23,1015.64,2046.98,3455.63,3169.80,3442.82,600.22,603.90,20.43,0000 0000 0000 0000 000000
2015-10-25 01:10:29,0.08,0.48,0.00,18.94,24.59,28.17,14.74,47.10,1015.64,2046.98,3453.84,3168.61,3441.51,599.96,603.71,20.48,0000 0000 0000 0000 000000
2015-10-25 01:15:31,0.06,0.48,0.00,18.96,24.60,28.18,14.80,46.93,1015.64,2046.98,3452.25,3167.45,3440.27,600.04,603.71,20.53,0000 0000 0000 0000 000000
2015-10-25 01:20:32,0.09,0.49,0.00,18.98,24.60,28.19,14.86,47.05,1015.64,2046.99,3450.27,3165.86,3438.63,600.16,603.89,20.58,0000 0000 0000 0000 000000
2015-10-25 01:25:34,0.10,0.49,0.00,19.00,24.60,28.18,14.82,47.11,1015.64,2046.98,3448.23,3164.27,3436.90,599.99,603.57,20.63,0000 0000 0000 0000 000000
2015-10-25 01:30:35,0.11,0.50,0.00,19.03,24.60,28.18,14.85,47.12,1015.53,2046.98,3445.98,3162.45,3434.92,599.86,603.48,20.68,0000 0000 0000 0000 000000
2015-10-25 01:35:36,0.11,0.50,0.00,19.06,24.62,28.18,14.81,47.12,1015.30,2046.99,3443.80,3160.63,3433.01,600.12,603.43,20.73,0000 0000 0000 0000 000000
2015-10-25 01:40:37,0.10,0.51,0.00,19.07,24.62,28.18,14.70,47.13,1015.15,2046.99,3441.64,3158.83,3431.26,599.53,602.64,20.78,0000 0000 0000 0000 000000
2015-10-25 01:45:39,0.11,0.51,0.00,19.09,24.62,28.15,14.78,47.15,1015.15,2046.99,3439.46,3156.87,3429.13,600.08,603.14,20.83,0000 0000 0000 0000 000000
2015-10-25 01:50:40,0.09,0.52,0.00,19.09,24.64,28.18,14.77,47.24,1015.16,2046.99,3437.40,3155.18,3427.27,599.85,602.99,20.88,0000 0000 0000 0000 000000
2015-10-25 01:55:42,0.10,0.52,0.00,19.10,24.65,28.20,14.82,47.13,1015.15,2046.99,3435.38,3153.57,3425.56,600.39,603.52,20.93,0000 0000 0000 0000 000000
2015-10-25 02:00:43,0.11,0.53,0.00,19.11,24.65,28.16,14.81,47.26,1015.15,2046.99,3433.15,3151.77,3423.61,599.89,602.99,20.98,0000 0000 0000 0000 000000
2015-10-25 02:05:44,0.13,0.54,0.00,19.12,24.67,28.21,14.74,47.17,1015.15,2046.99,3430.56,3149.50,3421.21,599.81,602.86,21.03,0000 0000 0000 0000 000000
2015-10-25 02:10:45,0.13,0.54,0.00,19.14,24.67,28.21,14.84,47.32,1015.15,2046.97,3428.18,3147.38,3418.86,599.92,602.89,21.08,0000 0000 0000 0000 000000
2015-10-25 02:15:46,0.11,0.55,0.00,19.14,24.67,28.21,14.78,47.17,1015.14,2046.96,3425.96,3145.45,3416.84,599.81,602.83,21.13,0000 0000 0000 0000 000000
2015-10-25 02:20:47,0.10,0.55,0.00,19.16,24.69,28.21,14.77,47.13,1015.10,2046.97,3423.91,3143.77,3415.05,599.99,603.03,21.18,0000 0000 0000 0000 000000
2015-10-25 02:25:48,0.11,0.56,0.00,19.17,24.70,28.22,14.79,47.24,1015.05,2046.95,3421.67,3141.93,3413.01,599.97,603.00,21.23,0000 0000 0000 0000 000000
2015-10-25 02:30:49,0.10,0.57,0.00,19.19,24.70,28.23,14.82,47.35,1014.94,2046.97,3419.56,3140.18,3411.18,600.20,603.04,21.28,0000 0000 0000 0000 000000
2015-10-25 02:35:51,0.10,0.57,0.00,19.19,24.71,28.24,14.84,47.28,1015.03,2046.97,3417.61,3138.57,3409.45,600.05,602.83,21.33,0000 0000 0000 0000 000000
2015-10-25 02:40:52,0.07,0.58,0.00,19.21,24.72,28.25,14.81,47.24,1014.95,2046.87,3415.64,3137.11,3407.85,600.12,602.89,21.38,0000 0000 0000 0000 000000
2015-10-25 02:45:54,0.09,0.58,0.00,19.22,24.72,28.27,14.77,47.21,1014.82,2046.73,3413.45,3135.49,3406.07,599.86,602.48,21.43,0000 0000 0000 0000 000000
2015-10-25 02:50:55,0.11,0.59,0.00,19.23,24.74,28.26,14.77,47.39,1014.73,2046.61,3411.20,3133.72,3403.96,600.44,602.99,21.48,0000 0000 0000 0000 000000
2015-10-25 02:55:57,0.08,0.59,0.00,19.26,24.75,28.27,14.73,47.26,1014.67,2046.48,3408.93,3131.71,3401.81,599.87,602.40,21.53,0000 0000 0000 0000 000000
2015-10-25 03:00:57,0.10,0.60,0.00,19.27,24.75,28.28,14.80,47.36,1014.66,2046.26,3406.78,3129.79,3399.89,599.96,602.44,21.58,0000 0000 0000 0000 000000
2015-10-25 03:05:59,0.08,0.60,0.00,19.27,24.77,28.29,14.81,47.48,1014.66,2046.18,3404.86,3128.23,3398.15,600.21,602.66,21.63,0000 0000 0000 0000 000000
2015-10-25 03:11:00,0.09,0.60,0.00,19.28,24.77,28.31,14.80,47.34,1014.66,2046.04,3402.85,3126.71,3396.52,600.25,602.72,21.68,0000 0000 0000 0000 000000
2015-10-25 03:16:01,0.08,0.61,0.00,19.29,24.78,28.33,14.80,47.25,1014.66,2046.04,3400.88,3125.41,3395.05,600.31,602.64,21.73,0000 0000 0000 0000 000000
2015-10-25 03:21:03,0.08,0.61,0.00,19.29,24.80,28.35,14.83,47.27,1014.64,2046.02,3399.15,3124.12,3393.65,600.31,602.73,21.78,0000 0000 0000 0000 000000
2015-10-25 03:26:04,0.09,0.62,0.00,19.29,24.80,28.35,14.71,47.45,1014.59,2046.01,3397.21,3122.71,3392.15,599.93,602.42,21.83,0000 0000 0000 0000 000000
2015-10-25 03:31:05,0.08,0.62,0.00,19.32,24.81,28.38,14.74,47.35,1014.58,2046.00,3395.28,3121.34,3390.72,599.93,602.29,21.88,0000 0000 0000 0000 000000
2015-10-25 03:36:06,0.08,0.63,0.00,19.34,24.82,28.36,14.69,47.34,1014.46,2046.00,3393.42,3120.01,3389.32,600.19,602.40,21.93,0000 0000 0000 0000 000000
2015-10-25 03:41:07,0.09,0.63,0.00,19.34,24.82,28.40,14.75,47.48,1014.23,2045.99,3391.59,3118.68,3387.90,599.97,601.94,21.98,0000 0000 0000 0000 000000
2015-10-25 03:46:08,0.07,0.63,0.00,19.37,24.84,28.39,14.75,47.63,1014.19,2045.99,3390.00,3117.47,3386.53,600.11,601.91,22.03,0000 0000 0000 0000 000000
2015-10-25 03:51:10,0.07,0.64,0.00,19.37,24.85,28.37,14.78,47.36,1014.18,2045.99,3388.22,3116.24,3385.16,600.17,602.05,22.08,0000 0000 0000 0000 000000
2015-10-25 03:56:11,0.07,0.64,0.00,19.39,24.86,28.38,14.84,47.38,1014.18,2045.99,3386.44,3115.05,3383.88,600.29,602.18,22.13,0000 0000 0000 0000 000000
2015-10-25 04:01:13,0.08,0.65,0.00,19.39,24.87,28.43,14.78,47.64,1014.16,2045.98,3384.72,3113.88,3382.60,600.01,601.96,22.18,0000 0000 0000 0000 000000
2015-10-25 04:06:14,0.08,0.65,0.00,19.39,24.87,28.41,14.67,47.38,1014.16,2045.98,3382.96,3112.70,3381.30,599.89,601.74,22.23,0000 0000 0000 0000 000000
2015-10-25 04:11:15,0.08,0.65,0.00,19.41,24.89,28.44,14.83,47.46,1014.15,2045.96,3381.11,3111.42,3379.89,599.82,601.70,22.28,0000 0000 0000 0000 000000
2015-10-25 04:16:17,0.07,0.66,0.00,19.43,24.90,28.43,14.79,47.28,1014.16,2045.95,3379.43,3110.34,3378.63,599.82,601.66,22.33,0000 0000 0000 0000 000000
2015-10-25 04:21:18,0.07,0.66,0.00,19.44,24.90,28.46,14.79,47.38,1014.16,2045.88,3377.59,3109.04,3377.21,600.37,602.17,22.38,0000 0000 0000 0000 000000
2015-10-25 04:26:19,0.07,0.67,0.00,19.45,24.92,28.43,14.67,47.23,1014.14,2045.81,3375.79,3107.77,3375.85,600.04,601.85,22.43,0000 0000 0000 0000 000000
2015-10-25 04:31:21,0.07,0.67,0.00,19.48,24.92,28.46,14.81,47.54,1014.06,2045.67,3374.01,3106.53,3374.54,600.19,602.01,22.48,0000 0000 0000 0000 000000
2015-10-25 04:36:23,0.05,0.67,0.00,19.49,24.94,28.49,14.65,47.42,1013.95,2045.48,3372.18,3105.37,3373.19,599.63,601.24,22.53,0000 0000 0000 0000 000000
2015-10-25 04:41:24,0.07,0.68,0.00,19.52,24.95,28.48,14.63,47.33,1013.96,2045.27,3370.42,3104.14,3371.87,600.10,601.65,22.58,0000 0000 0000 0000 000000
2015-10-25 04:46:25,0.06,0.68,0.00,19.53,24.96,28.48,14.75,47.40,1013.84,2045.13,3368.57,3102.89,3370.53,599.80,601.31,22.63,0000 0000 0000 0000 000000
2015-10-25 04:51:26,0.08,0.68,0.00,19.55,24.97,28.51,14.74,47.23,1013.94,2045.07,3366.74,3101.65,3369.26,599.87,601.28,22.68,0000 0000 0000 0000 000000
2015-10-25 04:56:27,0.08,0.69,0.00,19.57,24.97,28.49,14.76,47.19,1013.93,2045.04,3364.90,3100.46,3367.86,600.04,601.46,22.73,0000 0000 0000 0000 000000
2015-10-25 05:01:29,0.07,0.69,0.00,19.59,25.00,28.50,14.75,47.06,1013.92,2045.03,3363.17,3099.31,3366.57,599.90,601.36,22.78,0000 0000 0000 0000 000000
2015-10-25 05:06:30,0.08,0.70,0.00,19.61,25.01,28.52,14.77,47.05,1013.80,2045.01,3361.36,3098.01,3365.23,600.00,601.22,22.83,0000 0000 0000 0000 000000
2015-10-25 05:11:31,0.09,0.70,0.00,19.62,25.02,28.54,14.70,47.08,1013.72,2045.00,3359.43,3096.75,3363.79,599.99,601.26,22.88,0000 0000 0000 0000 000000
2015-10-25 05:16:33,0.08,0.71,0.00,19.63,25.03,28.55,14.81,47.11,1013.70,2045.00,3357.58,3095.53,3362.45,600.50,601.66,22.93,0000 0000 0000 0000 000000
2015-10-25 05:21:34,0.07,0.71,0.00,19.64,25.05,28.57,14.68,47.15,1013.70,2045.00,3355.73,3094.36,3361.10,599.88,601.02,22.98,0000 0000 0000 0000 000000
2015-10-25 05:26:35,0.08,0.71,0.00,19.64,25.06,28.60,14.74,47.22,1013.70,2045.00,3353.91,3093.08,3359.77,599.93,601.14,23.03,0000 0000 0000 0000 000000
2015-10-25 05:31:36,0.09,0.72,0.00,19.64,25.07,28.62,14.78,47.17,1013.70,2044.98,3352.02,3091.79,3358.39,600.30,601.53,23.08,0000 0000 0000 0000 000000
2015-10-25 05:36:37,0.08,0.72,0.00,19.66,25.09,28.64,14.72,47.22,1013.69,2044.98,3350.14,3090.58,3357.02,599.83,600.99,23.13,0000 0000 0000 0000 000000
2015-10-25 05:41:38,0.08,0.73,0.00,19.68,25.10,28.64,14.71,47.02,1013.69,2044.99,3348.24,3089.28,3355.55,600.13,601.09,23.18,0000 0000 0000 0000 000000
2015-10-25 05:46:40,0.08,0.73,0.00,19.69,25.12,28.64,14.77,47.13,1013.68,2044.96,3346.42,3088.01,3354.22,599.86,600.86,23.23,0000 0000 0000 0000 000000
2015-10-25 05:51:41,0.08,0.73,0.00,19.70,25.12,28.64,14.74,47.14,1013.67,2044.93,3344.53,3086.77,3352.85,600.06,601.08,23.28,0000 0000 0000 0000 000000
2015-10-25 05:56:42,0.08,0.74,0.00,19.72,25.15,28.66,14.72,47.22,1013.66,2044.91,3342.66,3085.53,3351.50,600.00,600.96,23.33,0000 0000 0000 0000 000000
2015-10-25 06:01:43,0.07,0.74,0.00,19.72,25.15,28.68,14.77,47.38,1013.64,2044.73,3340.78,3084.27,3350.04,600.07,601.06,23.38,0000 0000 0000 0000 000000
2015-10-25 06:06:44,0.03,0.74,0.00,19.73,25.17,28.70,14.71,47.30,1013.61,2044.28,3338.83,3082.91,3348.61,600.07,600.84,23.43,0000 0000 0000 0000 000000
2015-10-25 06:11:46,0.08,0.75,0.00,19.74,25.18,28.72,14.75,47.18,1013.53,2044.11,3337.00,3081.67,3347.21,599.75,600.58,23.48,0000 0000 0000 0000 000000
2015-10-25 06:16:47,0.07,0.75,0.00,19.75,25.20,28.71,14.76,47.10,1013.44,2044.06,3335.30,3080.49,3345.92,599.95,600.75,23.53,0000 0000 0000 0000 000000
2015-10-25 06:21:48,0.08,0.76,0.00,19.77,25.21,28.73,14.74,47.20,1013.33,2044.04,3333.52,3079.32,3344.59,600.09,600.71,23.58,0000 0000 0000 0000 000000
2015-10-25 06:26:49,0.08,0.76,0.00,19.78,25.22,28.76,14.75,47.28,1013.26,2044.03,3331.74,3078.02,3343.28,599.87,600.58,23.63,0000 0000 0000 0000 000000
2015-10-25 06:31:51,0.08,0.76,0.00,19.79,25.24,28.76,14.82,47.35,1013.32,2044.00,3329.96,3076.80,3341.91,600.47,601.14,23.68,0000 0000 0000 0000 000000
2015-10-25 06:36:52,0.07,0.77,0.00,19.79,25.25,28.76,14.79,47.32,1013.46,2044.00,3328.31,3075.69,3340.68,600.38,601.04,23.73,0000 0000 0000 0000 000000
2015-10-25 06:41:53,0.07,0.77,0.00,19.80,25.27,28.79,14.72,47.29,1013.49,2044.00,3326.67,3074.57,3339.43,600.17,600.89,23.79,0000 0000 0000 0000 000000
2015-10-25 06:46:55,0.06,0.78,0.00,19.82,25.28,28.82,14.69,47.21,1013.39,2044.00,3325.10,3073.48,3338.20,599.95,600.52,23.84,0000 0000 0000 0000 000000
2015-10-25 06:51:56,0.07,0.78,0.00,19.82,25.30,28.83,14.77,47.26,1013.26,2044.00,3323.47,3072.41,3336.94,600.11,600.63,23.89,0000 0000 0000 0000 000000
2015-10-25 06:56:58,0.08,0.78,0.00,19.82,25.31,28.83,14.67,47.41,1013.24,2044.00,3321.75,3071.25,3335.65,599.95,600.36,23.94,0000 0000 0000 0000 000000
2015-10-25 07:01:59,0.06,0.79,0.00,19.84,25.32,28.83,14.79,47.36,1013.23,2043.99,3320.15,3070.24,3334.45,599.78,600.42,23.99,0000 0000 0000 0000 000000
2015-10-25 07:07:01,0.07,0.79,0.00,19.85,25.34,28.83,14.70,47.25,1013.27,2043.98,3318.47,3069.07,3333.24,600.01,600.50,24.04,0000 0000 0000 0000 000000
2015-10-25 07:12:02,0.11,0.80,0.00,19.87,25.35,28.85,14.73,47.16,1013.63,2043.98,3316.79,3067.13,3331.93,600.16,600.65,24.09,0000 0000 0000 0000 000000
2015-10-25 07:17:03,0.07,0.80,0.00,19.88,25.36,28.87,14.71,47.19,1013.62,2043.97,3315.18,3065.74,3330.71,600.09,600.75,24.14,0000 0000 0000 0000 000000
2015-10-25 07:22:04,0.07,0.80,0.00,19.89,25.37,28.88,14.69,47.15,1013.47,2043.94,3313.54,3064.58,3329.48,600.10,600.65,24.19,0000 0000 0000 0000 000000
2015-10-25 07:27:06,0.07,0.81,0.00,19.92,25.39,28.89,14.74,47.23,1013.63,2043.93,3311.85,3063.42,3328.08,600.15,600.69,24.24,0000 0000 0000 0000 000000
2015-10-25 07:32:07,0.06,0.81,0.00,19.93,25.40,28.92,14.73,47.32,1013.49,2043.87,3310.16,3062.10,3326.77,600.29,600.69,24.29,0000 0000 0000 0000 000000
2015-10-25 07:37:08,0.05,0.82,0.00,19.94,25.42,28.92,14.76,47.34,1013.24,2043.69,3308.55,3060.99,3325.58,600.17,600.44,24.34,0000 0000 0000 0000 000000
2015-10-25 07:42:09,0.05,0.82,0.00,19.94,25.42,28.95,14.71,47.32,1013.21,2043.29,3306.85,3059.83,3324.32,599.80,600.07,24.39,0000 0000 0000 0000 000000
2015-10-25 07:47:10,0.06,0.82,0.00,19.96,25.44,28.94,14.67,47.39,1013.20,2043.20,3305.24,3058.77,3323.14,600.18,600.34,24.44,0000 0000 0000 0000 000000
2015-10-25 07:52:11,0.07,0.82,0.00,19.97,25.45,28.96,14.71,47.34,1013.20,2043.06,3303.63,3057.60,3321.85,600.11,600.26,24.49,0000 0000 0000 0000 000000
2015-10-25 07:57:12,0.06,0.83,0.00,19.97,25.46,28.98,14.77,47.41,1013.20,2043.03,3302.03,3056.58,3320.70,600.23,600.41,24.54,0000 0000 0000 0000 000000
2015-10-25 08:02:14,0.07,0.83,0.00,19.97,25.47,29.02,14.80,47.46,1013.21,2043.02,3300.48,3055.52,3319.56,600.18,600.51,24.59,0000 0000 0000 0000 000000
2015-10-25 08:07:15,0.07,0.83,0.00,19.99,25.48,29.02,14.70,47.42,1013.20,2043.00,3298.87,3054.37,3318.38,600.19,600.26,24.64,0000 0000 0000 0000 000000
2015-10-25 08:12:17,0.07,0.84,0.00,20.01,25.50,29.00,14.69,47.43,1013.20,2043.00,3297.33,3053.31,3317.18,599.66,599.82,24.69,0000 0000 0000 0000 000000
2015-10-25 08:17:18,0.07,0.84,0.00,20.02,25.50,29.01,14.67,47.38,1013.20,2043.00,3295.84,3052.21,3316.02,599.69,599.87,24.74,0000 0000 0000 0000 000000
2015-10-25 08:22:19,0.07,0.85,0.00,20.03,25.52,29.06,14.79,47.43,1013.21,2043.00,3294.26,3051.23,3314.85,600.37,600.27,24.79,0000 0000 0000 0000 000000
2015-10-25 08:27:20,0.07,0.85,0.00,20.04,25.52,29.05,14.70,47.42,1013.21,2043.00,3292.66,3050.14,3313.68,600.01,599.92,24.84,0000 0000 0000 0000 000000
2015-10-25 08:32:21,0.07,0.85,0.00,20.06,25.54,29.06,14.74,47.45,1013.21,2043.00,3291.09,3049.04,3312.52,599.99,599.97,24.89,0000 0000 0000 0000 000000
2015-10-25 08:37:22,0.07,0.86,0.00,20.07,25.55,29.08,14.70,47.42,1013.22,2043.00,3289.51,3048.00,3311.45,599.87,599.75,24.94,0000 0000 0000 0000 000000
2015-10-25 08:42:23,0.08,0.86,0.00,20.09,25.57,29.06,14.70,47.38,1013.20,2043.00,3287.87,3046.81,3310.10,599.85,599.73,24.99,0000 0000 0000 0000 000000
2015-10-25 08:47:25,0.08,0.87,0.00,20.09,25.57,29.07,14.78,47.40,1013.20,2042.98,3286.27,3045.66,3308.83,600.07,599.98,25.04,0000 0000 0000 0000 000000
2015-10-25 08:52:26,0.08,0.87,0.00,20.12,25.59,29.11,14.71,47.44,1013.20,2042.97,3284.62,3044.50,3307.58,600.01,599.88,25.09,0000 0000 0000 0000 000000
2015-10-25 08:57:28,0.07,0.87,0.00,20.13,25.60,29.13,14.66,47.36,1013.20,2042.94,3282.88,3043.32,3306.27,599.80,599.78,25.14,0000 0000 0000 0000 000000
2015-10-25 09:02:29,0.07,0.88,0.00,20.14,25.62,29.12,14.71,47.32,1013.20,2042.92,3281.25,3042.13,3304.99,600.16,599.97,25.19,0000 0000 0000 0000 000000
2015-10-25 09:07:31,0.06,0.88,0.00,20.17,25.62,29.13,14.77,47.35,1013.21,2042.74,3279.64,3040.95,3303.75,600.23,599.94,25.24,0000 0000 0000 0000 000000
2015-10-25 09:12:32,0.04,0.88,0.00,20.19,25.65,29.15,14.75,47.37,1013.21,2042.41,3277.98,3039.82,3302.42,600.41,600.07,25.29,0000 0000 0000 0000 000000
2015-10-25 09:17:33,0.06,0.89,0.00,20.22,25.65,29.15,14.55,47.27,1013.22,2042.18,3276.43,3038.53,3301.22,599.55,599.33,25.34,0000 0000 0000 0000 000000
2015-10-25 09:22:35,0.06,0.89,0.00,20.25,25.67,29.22,14.74,47.28,1013.21,2042.13,3274.86,3037.49,3299.99,599.95,599.56,25.39,0000 0000 0000 0000 000000
2015-10-25 09:27:36,0.07,0.89,0.00,20.28,25.69,29.19,14.74,47.43,1013.20,2042.07,3273.37,3036.43,3298.77,599.98,599.51,25.44,0000 0000 0000 0000 000000
2015-10-25 09:32:37,0.07,0.90,0.00,20.31,25.70,29.22,14.69,47.52,1013.21,2042.01,3271.61,3035.16,3297.45,599.79,599.33,25.49,0000 0000 0000 0000 000000
2015-10-25 09:37:38,0.08,0.90,0.00,20.33,25.72,29.23,14.69,47.23,1013.21,2042.00,3269.99,3033.87,3296.20,599.74,599.16,25.54,0000 0000 0000 0000 000000
2015-10-25 09:42:39,0.08,0.90,0.00,20.36,25.73,29.22,14.70,47.41,1013.20,2042.00,3268.33,3032.67,3294.78,599.90,599.28,25.59,0000 0000 0000 0000 000000
2015-10-25 09:47:41,0.08,0.91,0.00,20.38,25.75,29.24,14.67,47.39,1013.20,2042.00,3266.63,3031.47,3293.48,600.03,599.36,25.64,0000 0000 0000 0000 000000
2015-10-25 09:52:42,0.07,0.91,0.00,20.41,25.77,29.25,14.66,47.38,1013.20,2042.00,3265.05,3030.29,3292.20,599.84,599.11,25.69,0000 0000 0000 0000 000000
2015-10-25 09:57:44,0.07,0.92,0.00,20.44,25.78,29.27,14.75,47.43,1013.20,2041.98,3263.58,3029.20,3290.97,599.95,599.09,25.74,0000 0000 0000 0000 000000
2015-10-25 10:02:45,0.07,0.92,0.00,20.47,25.80,29.31,14.70,47.38,1013.20,2041.99,3262.19,3028.10,3289.74,600.34,599.57,25.79,0000 0000 0000 0000 000000
2015-10-25 10:07:46,0.07,0.92,0.00,20.49,25.82,29.31,14.65,47.13,1013.20,2041.96,3260.66,3026.97,3288.57,600.09,599.25,25.84,0000 0000 0000 0000 000000
2015-10-25 10:12:47,0.05,0.93,0.00,20.50,25.84,29.31,14.62,47.35,1013.20,2041.88,3259.28,3025.95,3287.51,600.05,599.32,25.89,0000 0000 0000 0000 000000
2015-10-25 10:17:49,0.06,0.93,0.00,20.52,25.86,29.34,14.69,47.42,1013.19,2041.74,3257.77,3024.90,3286.37,599.90,598.97,25.94,0000 0000 0000 0000 000000
2015-10-25 10:22:50,0.05,0.93,0.00,20.54,25.87,29.36,14.68,47.30,1013.18,2041.61,3256.43,3023.88,3285.22,599.93,598.91,25.99,0000 0000 0000 0000 000000
2015-10-25 10:27:51,0.03,0.94,0.00,20.57,25.90,29.40,14.74,47.40,1013.14,2041.19,3254.91,3022.81,3284.02,600.03,598.97,26.04,0000 0000 0000 0000 000000
2015-10-25 10:32:53,0.07,0.94,0.00,20.59,25.91,29.41,14.65,47.40,1013.00,2041.07,3253.48,3021.73,3282.87,599.85,598.72,26.09,0000 0000 0000 0000 000000
2015-10-25 10:37:54,0.06,0.94,0.00,20.61,25.93,29.43,14.68,47.38,1012.97,2041.02,3252.03,3020.73,3281.73,599.97,598.70,26.14,0000 0000 0000 0000 000000
2015-10-25 10:42:55,0.08,0.94,0.00,20.63,25.95,29.44,14.69,47.24,1013.06,2041.00,3250.55,3019.60,3280.52,600.00,598.77,26.19,0000 0000 0000 0000 000000
2015-10-25 10:47:56,0.07,0.95,0.00,20.64,25.97,29.44,14.67,47.21,1013.12,2041.00,3248.94,3018.38,3279.28,600.08,598.73,26.24,0000 0000 0000 0000 000000
2015-10-25 10:52:58,0.06,0.95,0.00,20.67,25.99,29.46,14.76,47.13,1013.16,2041.00,3247.53,3017.37,3278.08,600.05,598.79,26.29,0000 0000 0000 0000 000000
2015-10-25 10:57:59,0.07,0.96,0.00,20.69,26.01,29.48,14.69,47.12,1013.14,2041.00,3245.96,3016.37,3276.93,599.93,598.54,26.34,0000 0000 0000 0000 000000
2015-10-25 11:03:00,0.07,0.96,0.00,20.69,26.03,29.52,14.63,47.12,1013.05,2040.98,3244.48,3015.32,3275.76,599.84,598.42,26.39,0000 0000 0000 0000 000000
2015-10-25 11:08:01,0.07,0.96,0.00,20.70,26.05,29.54,14.73,47.19,1013.04,2040.97,3242.89,3014.16,3274.52,600.18,598.78,26.44,0000 0000 0000 0000 000000
2015-10-25 11:13:02,0.05,0.97,0.00,20.72,26.07,29.57,14.70,47.31,1013.07,2040.85,3241.38,3013.03,3273.31,600.28,598.86,26.49,0000 0000 0000 0000 000000
2015-10-25 11:18:04,0.04,0.97,0.00,20.72,26.08,29.58,14.60,47.13,1013.00,2040.63,3239.85,3011.98,3272.22,599.97,598.54,26.54,0000 0000 0000 0000 000000
2015-10-25 11:23:05,0.03,0.97,0.00,20.73,26.10,29.60,14.66,47.24,1012.84,2040.25,3238.42,3010.92,3271.09,600.12,598.61,26.59,0000 0000 0000 0000 000000
2015-10-25 11:28:06,0.07,0.97,0.00,20.74,26.12,29.62,14.66,47.27,1012.80,2040.10,3236.87,3009.86,3269.88,600.18,598.48,26.64,0000 0000 0000 0000 000000
2015-10-25 11:33:07,0.06,0.98,0.00,20.74,26.14,29.65,14.69,47.26,1012.75,2040.04,3235.40,3008.89,3268.78,599.98,598.34,26.69,0000 0000 0000 0000 000000
2015-10-25 11:38:09,0.07,0.98,0.00,20.75,26.16,29.65,14.68,47.24,1012.74,2040.01,3233.92,3007.84,3267.62,600.18,598.46,26.74,0000 0000 0000 0000 000000
2015-10-25 11:43:10,0.06,0.98,0.00,20.75,26.17,29.68,14.63,47.38,1012.76,2040.01,3232.47,3006.87,3266.47,600.08,598.49,26.79,0000 0000 0000 0000 000000
2015-10-25 11:48:11,0.07,0.99,0.00,20.76,26.20,29.72,14.64,47.34,1012.77,2040.00,3230.85,3005.87,3265.34,599.87,598.18,26.84,0000 0000 0000 0000 000000
2015-10-25 11:53:12,0.07,0.99,0.00,20.77,26.20,29.70,14.63,47.33,1012.87,2040.00,3229.36,3004.81,3264.14,599.90,598.22,26.89,0000 0000 0000 0000 000000
2015-10-25 11:58:14,0.07,1.00,0.00,20.77,26.22,29.72,14.67,47.28,1012.91,2040.00,3227.83,3003.74,3263.07,600.24,598.54,26.94,0000 0000 0000 0000 000000
2015-10-25 12:03:15,0.07,1.00,0.00,20.79,26.24,29.79,14.65,47.26,1012.79,2040.00,3226.45,3002.63,3262.01,600.12,598.36,26.99,0000 0000 0000 0000 000000
2015-10-25 12:08:16,0.07,1.00,0.00,20.80,26.25,29.78,14.71,47.33,1012.80,2039.98,3224.87,3001.57,3260.81,600.15,598.39,27.04,0000 0000 0000 0000 000000
2015-10-25 12:13:18,0.07,1.01,0.00,20.81,26.27,29.77,14.55,47.28,1012.82,2039.98,3223.36,3000.49,3259.65,599.70,598.13,27.09,0000 0000 0000 0000 000000
2015-10-25 12:18:19,0.06,1.01,0.00,20.84,26.27,29.81,14.70,47.38,1012.86,2039.98,3221.84,2999.49,3258.53,600.21,598.40,27.14,0000 0000 0000 0000 000000
2015-10-25 12:23:20,0.06,1.01,0.00,20.86,26.30,29.84,14.67,47.19,1013.00,2039.93,3220.47,2998.45,3257.44,599.85,598.14,27.19,0000 0000 0000 0000 000000
2015-10-25 12:28:21,0.07,1.02,0.00,20.88,26.31,29.83,14.71,47.25,1013.09,2039.86,3218.77,2997.29,3256.18,600.27,598.31,27.24,0000 0000 0000 0000 000000
2015-10-25 12:33:23,0.06,1.02,0.00,20.91,26.32,29.82,14.71,47.31,1013.08,2039.69,3217.27,2996.12,3254.88,600.04,598.18,27.29,0000 0000 0000 0000 000000
2015-10-25 12:38:23,0.04,1.02,0.00,20.94,26.34,29.85,14.61,47.29,1012.99,2039.40,3215.76,2994.89,3253.70,600.03,598.10,27.34,0000 0000 0000 0000 000000
2015-10-25 12:43:25,0.05,1.03,0.00,20.96,26.36,29.87,14.65,47.34,1012.90,2039.14,3214.30,2993.77,3252.50,599.87,597.94,27.39,0000 0000 0000 0000 000000
2015-10-25 12:48:26,0.07,1.03,0.00,20.99,26.37,29.87,14.67,47.23,1012.79,2039.03,3212.75,2992.68,3251.32,600.11,598.02,27.44,0000 0000 0000 0000 000000
2015-10-25 12:53:27,0.06,1.03,0.00,21.02,26.39,29.88,14.72,47.33,1012.80,2039.01,3211.29,2991.67,3250.08,600.31,598.10,27.49,0000 0000 0000 0000 000000